Location: Esterri de Aneo
(42.6284°N, 1.1223°E)
Time: 07:45:28
(UTC+00:00)

Tiangong - Visible Passes

Search period start: 09 February 2026 00:00
Search period end: 19 February 2026 00:00
Orbit: 386 x 393 km, 41.5° (Epoch: 8 February)

Date Brightness Start Highest point End Pass type
(mag) Time Alt. Az. Time Alt. Az. Time Alt. Az.
9 Feb 0.7 19:31:41 10° SW 19:32:13 13° SW 19:32:13 13° SW visible
10 Feb -0.4 18:34:05 10° SSW 18:36:28 20° SSE 18:37:05 19° SE visible
11 Feb -0.9 19:11:52 10° WSW 19:14:09 35° SSW 19:14:09 35° SSW visible
12 Feb -0.9 18:13:55 10° SW 18:16:46 31° SSE 18:18:49 16° ESE visible
12 Feb 0.9 19:50:19 10° W 19:51:07 16° WSW 19:51:07 16° WSW visible
13 Feb -2.0 18:52:06 10° WSW 18:55:14 60° S 18:55:43 51° SE visible
14 Feb -1.5 17:53:54 10° WSW 17:56:58 46° SSE 18:00:01 10° E visible
14 Feb -0.4 19:30:36 10° W 19:32:32 33° W 19:32:32 33° W visible
15 Feb -2.1 18:32:15 10° W 18:35:25 71° S 18:37:00 26° E visible
15 Feb 1.4 20:09:08 10° W 20:09:18 11° W 20:09:18 11° W visible
16 Feb -1.9 19:10:43 10° W 19:13:45 64° SSW 19:13:45 64° SSW visible
17 Feb -2.0 18:12:17 10° W 18:15:27 72° S 18:18:10 13° E visible
17 Feb 0.5 19:49:14 10° W 19:50:28 20° WSW 19:50:28 20° WSW visible
18 Feb -1.5 18:50:41 10° W 18:53:47 50° SSW 18:54:54 32° SE visible
